Regional Weather Roundup
Issued by NWS

Home | Current Version | Previous Version | Text Only | Print | Product List | Glossary On
Versions: 1 2 3 4 5 6 7 8 9 10 11 12 13 14 15 16 17 18 19 20 21 22 23 24 25 26 27 28 29 30 31 32 33 34 35 36 37 38 39 40 41 42 43 44 45 46 47 48 49 50
000
ASCA44 KEWX 311820
RWRMX

LATIN AMERICA AND CARIBBEAN REGIONAL WEATHER ROUNDUP
NATIONAL WEATHER SERVICE AUSTIN/SAN ANTONIO TX
100 PM CDT THU JUL 31 2014

NOTE: "FAIR" INDICATED FEW OR NO CLOUDS BELOW 12,000 FEET WITH NO
SIGNIFICANT WEATHER AND/OR OBSTRUCTIONS TO VISIBILITY.

BAJA CALIFORNIA

CITY           SKY/WX    TMP DP  RH WIND       PRES   REMARKS
LORETO         PTSUNNY   91  77  62 CALM      29.86R HX 105
LA PAZ         MOSUNNY   93  73  52 NW12      29.90  HX 102
MEXICALI       CLOUDY    97  72  44 SE10      29.84  HX 105
S.J. DEL CABO  MOSUNNY   91  75  59 SE17      29.93S HX 102
TIJUANA        MOSUNNY   79  63  57 W13       29.95F

NORTHWESTERN MEXICO

CITY           SKY/WX    TMP DP  RH WIND       PRES   REMARKS
CULIACAN       CLOUDY    90  73  58 CALM      29.94  HX  98
DURANGO        PTSUNNY   81  48  32 N6        30.29
GUAYMAS        MOSUNNY   95  72  46 S9        29.87  HX 103
HERMOSILLO     PTSUNNY   91  66  43 CALM      29.97  HX  94
CD. JUAREZ     PTSUNNY   82  59  44 E12       30.14
LOS MOCHIS     PTSUNNY   90  72  55 S9        29.91F HX  96
OBREGON        MOSUNNY   90  68  48 SE2       29.90  HX  93

NORTHEASTERN MEXICO

CITY           SKY/WX    TMP DP  RH WIND       PRES   REMARKS
CHIHUAHUA      SUNNY     82  54  36 N16       30.22
MATAMOROS      MOSUNNY   93  75  55 S21       29.95  HX 104
MONCLOVA       SUNNY     91  55  29 N14       29.98
MONTERREY      SUNNY     91  64  40 E8        29.94F HX  93
NUEVO LAREDO   SUNNY     95  72  46 S7        29.94  HX 103
PIEDRAS NEGRAS PTSUNNY   91  75  59 N12       30.00S HX 102
REYNOSA        SUNNY     95  59  30 SE12G23   29.91  HX  94
SALTILLO       MOSUNNY   90  59  35 N7        30.19F
TORREON        MOSUNNY   90  50  25 NW3       30.10F
CD. VICTORIA   MOSUNNY   91  66  43 SE12G23   29.93  HX  94

WESTERN MEXICO

CITY           SKY/WX    TMP DP  RH WIND       PRES   REMARKS
AGUASCALIENTES PTSUNNY   73  55  53 SE7       30.33
COLIMA         MOSUNNY   81  72  74 S7        30.08F
DEL BAJIO      PTSUNNY   72  61  68 CALM      30.36S
GUADALAJARA    PTSUNNY   64  61  88 SE6       30.26
MAZATLAN       CLOUDY    81  72  74 E8        29.94S
P. VALLARTA    CLOUDY    90  75  62 S12       29.94F HX 100
URUAPAN        PTSUNNY   73  63  68 S7        30.25F
ZACATECAS      PTSUNNY   79  43  27 NE5       30.34F

CENTRAL MEXICO

CITY           SKY/WX    TMP DP  RH WIND       PRES   REMARKS
CUERNAVACA     MOSUNNY   81  54  39 S5        30.20R
MEXICO CITY    SUNNY     72  46  40 E7        30.38S
MORELIA        PTSUNNY   73  59  60 W6        30.30
POZA RICA      PTSUNNY   91  77  62 E7        29.97  HX 105
PUEBLA         MOSUNNY   73  43  33 SE3       30.40F
QUERETARO      MOSUNNY   77  57  50 CALM      30.34S
S. LUIS POTOSI MOSUNNY   75  52  43 SW5       30.29F
TAMPICO        MOSUNNY   90  72  55 SE9       29.97S HX  96
TOLUCA         MOSUNNY   68  45  42 E2        30.46S

SOUTHERN MEXICO

CITY           SKY/WX    TMP DP  RH WIND       PRES   REMARKS
ACAPULCO       SUNNY     90  75  62 W9        29.90S HX 100
B. DE HUATULCO MOSUNNY   91  75  59 W7        29.91  HX 102
OAXACA         SUNNY     77  50  38 SE5       30.25F
P. ESCONDIDO   SUNNY     90  70  51 W9        30.03S HX  95
VERACRUZ       MOSUNNY   90  73  58 S6        29.96F HX  98
ZIHUATANEJO    MOSUNNY   90  77  66 W7        29.92R HX 102

YUCATAN PENINSULA

CITY           SKY/WX    TMP DP  RH WIND       PRES   REMARKS
CAMPECHE       MOSUNNY   91  73  55 E7        29.94F HX 100
CANCUN         MOSUNNY   90  75  62 E9        30.00S HX 100
CHETUMAL       MOSUNNY   90  81  74 E7        29.96F HX 108
CD. DEL CARMEN SUNNY     88  73  62 SE12      29.96  HX  96
COZUMEL        PTSUNNY   84  75  74 NE6       30.00R HX  92
MERIDA         PTSUNNY   91  72  52 CALM      29.98F HX  98
MINATITLAN     MOSUNNY   88  68  51 N12       29.93  HX  91
TAPACHULA      MOSUNNY   91  79  66 CALM      29.88S HX 107
TUX. GUTIERREZ MOSUNNY   86  66  51 S5        29.98F
VILLAHERMOSA   MOSUNNY   91  70  49 NE12      29.95F HX  97

CENTRAL AMERICA

CITY           SKY/WX    TMP DP  RH WIND       PRES   REMARKS
BELIZE CITY    MOSUNNY   90  75  62 E7        29.97F HX 100
MANAGUA        PTCLDY    93  70  46 E18       29.83F HX  99

CARIBBEAN

CITY           SKY/WX    TMP DP  RH WIND       PRES   REMARKS
ARUBA          MOSUNNY   91  77  62 E24G36    29.83  HX 105
CURACAO        MOSUNNY   88  75  66 E16       29.89S HX  97
KINGSTON       MOSUNNY   86  77  74 S18       29.92F HX  97
SAN JUAN       MOSUNNY   90  75  62 E17       29.96F HX 100
SANTO DOMINGO  MOSUNNY   90  77  66 S6        29.94S HX 102
ST. CROIX      MOSUNNY   90  75  62 SE14      30.00F HX 100
ST. KITTS      MOSUNNY   88  73  62 E15       29.97F HX  96
ST. MAARTEN    MOSUNNY   86  73  66 SE14      29.97F HX  93

$$




USA.gov is the U.S. government's official web portal to all federal, state and local government web resources and services.